Weather reports worldwide

Advertisment
Aberdeen/Dyce, United Kingdom (3091): temperature & dewpoint: 13.02.2019 13:00:00 - 19.02.2019 13:00:00 (GMT)Aberdeen/Dyce, United Kingdom (3091): temperature -20cm & temperature -100cm: 13.02.2019 13:00:00 - 19.02.2019 13:00:00 (GMT)Aberdeen/Dyce, United Kingdom (3091): wind speed & gusts: 13.02.2019 13:00:00 - 19.02.2019 13:00:00 (GMT)Aberdeen/Dyce, United Kingdom (3091): wind direction: 13.02.2019 13:00:00 - 19.02.2019 13:00:00 (GMT)Aberdeen/Dyce, United Kingdom (3091): reduced air pressure: 13.02.2019 13:00:00 - 19.02.2019 13:00:00 (GMT)Aberdeen/Dyce, United Kingdom (3091): visibility: 13.02.2019 13:00:00 - 19.02.2019 13:00:00 (GMT)Aberdeen/Dyce, United Kingdom (3091): sunshine duration: 13.02.2019 13:00:00 - 19.02.2019 13:00:00 (GMT)Aberdeen/Dyce, United Kingdom (3091): precipitation: 13.02.2019 13:00:00 - 19.02.2019 13:00:00 (GMT)
Date & Time tt [°C] td [°C] tt -20cm [°C] tt -100cm [°C] ff [km/h] ff [kn] fx [km/h] fx [kn] dd ppp [hPa] vv [km] sd [min] rr [mm]
19.02.2019 13:00:00 9,4 1,7 - - 11 6 - - WNW 1009,4 10 6 0,0
19.02.2019 12:00:00 8,8 2,0 - - 18 10 - - NNW 1009,1 10 48 0,0
19.02.2019 11:00:00 8,6 1,9 - - 16 9 - - WNW 1009,0 10 60 0,0
19.02.2019 10:00:00 7,7 1,7 - - 18 10 - - W 1008,7 10 60 0,0
19.02.2019 09:00:00 6,5 1,3 4,9 5,4 18 10 - - W 1008,2 10 60 0,0
19.02.2019 08:00:00 5,4 1,0 - - 16 9 - - W 1007,7 50 6 0,0
19.02.2019 07:00:00 4,6 1,1 - - 13 7 - - W 1007,2 50 0 0,0
19.02.2019 06:00:00 4,2 1,3 - - 9 5 - - WSW 1006,5 50 0 0,0
19.02.2019 05:00:00 5,0 1,9 - - 13 7 - - WSW 1006,0 10 0 0,0
19.02.2019 04:00:00 4,6 2,2 - - 13 7 - - SW 1005,5 10 0 0,0
19.02.2019 03:00:00 5,8 3,0 - - 9 5 - - SW 1004,8 10 0 0,0
19.02.2019 02:00:00 6,3 3,4 - - 15 8 - - WNW 1004,4 10 0 0,0
19.02.2019 01:00:00 6,9 3,2 - - 11 6 - - W 1003,4 10 0 0,0
19.02.2019 00:00:00 6,6 2,5 - - 18 10 - - W 1002,2 10 - 0,0
18.02.2019 23:00:00 5,9 1,6 - - 16 9 - - W 1001,6 10 0 0,0
18.02.2019 22:00:00 5,4 1,6 - - 15 8 - - SW 1000,9 50 0 0,0
18.02.2019 21:00:00 6,4 1,8 - - 13 7 - - WSW 1000,4 10 0 0,0
18.02.2019 20:00:00 7,1 2,0 - - 15 8 - - WSW 999,7 10 0 0,0
18.02.2019 19:00:00 6,3 1,7 - - 9 5 - - S 999,2 10 0 0,0
18.02.2019 18:00:00 7,4 2,0 - - 18 10 - - WSW 998,4 50 0 0,0
18.02.2019 17:00:00 7,7 3,2 - - 21 11 - - SW 998,0 50 12 0,0
18.02.2019 16:00:00 8,0 3,3 - - 24 13 57 31 SSW 998,0 10 0 0,0
18.02.2019 15:00:00 8,6 2,7 - - 39 21 54 29 SSW 997,9 10 6 0,0
18.02.2019 14:00:00 8,8 2,6 - - 35 19 61 33 SSW 998,0 10 0 0,0
18.02.2019 13:00:00 8,1 2,2 - - 35 19 59 32 SW 998,7 10 0 0,0
18.02.2019 12:00:00 8,3 2,5 - - 26 14 59 32 SW 999,0 19 6 0,0
18.02.2019 11:00:00 7,9 2,0 - - 29 16 57 31 SW 999,4 27 24 0,0
18.02.2019 10:00:00 7,4 2,0 - - 29 16 46 25 SW 999,9 27 12 0,0
18.02.2019 09:00:00 7,2 2,2 4,9 5,2 24 13 - - SSW 1000,2 30 24 0,0
18.02.2019 08:00:00 7,3 2,7 - - 18 10 - - SSW 1000,3 10 0 0,0
18.02.2019 07:00:00 7,7 3,6 - - 16 9 55 30 SW 1000,1 10 0 0,0
18.02.2019 06:00:00 7,4 3,8 - - 31 17 - - S 999,5 10 0 0,0
18.02.2019 05:00:00 7,2 3,4 - - 26 14 55 30 SSW 999,8 21 0 0,0
18.02.2019 04:00:00 7,0 3,9 - - 44 24 67 36 S 999,2 10 0 0,0
18.02.2019 03:00:00 7,0 4,2 - - 37 20 54 29 S 1000,3 15 0 0,0
18.02.2019 02:00:00 7,3 4,5 - - 39 21 54 29 S 1000,7 10 0 0,0
18.02.2019 01:00:00 7,3 4,6 - - 26 14 - - S 1001,5 10 0 0,0
18.02.2019 00:00:00 7,2 4,4 - - 29 16 - - S 1002,1 10 - 0,0
17.02.2019 23:00:00 6,7 3,7 - - 18 10 - - S 1002,3 10 0 0,0
17.02.2019 22:00:00 6,7 3,5 - - 26 14 - - S 1002,8 10 0 0,0
17.02.2019 21:00:00 7,1 3,3 - - 29 16 - - S 1003,0 10 0 0,0
17.02.2019 20:00:00 8,0 3,3 - - 28 15 50 27 S 1002,9 30 0 0,0
17.02.2019 19:00:00 8,5 3,9 - - 18 10 - - SSW 1002,8 10 0 0,0
17.02.2019 18:00:00 9,1 4,1 - - 29 16 48 26 S 1002,2 10 0 0,0
17.02.2019 17:00:00 10,1 5,3 - - 28 15 - - SSW 1001,7 40 6 0,0
17.02.2019 16:00:00 10,4 6,1 - - 35 19 52 28 S 1001,4 35 0 0,0
17.02.2019 15:00:00 10,2 6,5 - - 31 17 50 27 S 1001,0 10 6 0,0
17.02.2019 14:00:00 9,5 6,5 - - 22 12 - - SSE 1001,4 10 6 0,0
17.02.2019 13:00:00 8,1 5,8 - - 29 16 48 26 SSE 1002,4 10 12 0,0
17.02.2019 12:00:00 8,9 6,0 - - 37 20 55 30 S 1003,0 10 18 -
17.02.2019 11:00:00 8,4 6,0 - - 35 19 52 28 S 1003,8 11 24 -
17.02.2019 10:00:00 8,0 5,9 - - 28 15 - - S 1004,3 10 42 0,0
17.02.2019 09:00:00 7,7 6,3 4,7 5,2 26 14 - - S 1005,0 10 0 0,0
17.02.2019 08:00:00 7,8 6,4 - - 16 9 - - S 1006,0 9 0 0,0
17.02.2019 07:00:00 8,4 6,6 - - 26 14 46 25 S 1006,2 10 0 0,0
17.02.2019 06:00:00 8,8 6,4 - - 26 14 48 26 S 1005,9 10 0 0,0
17.02.2019 05:00:00 9,6 6,8 - - 22 12 - - S 1006,4 10 0 0,0
17.02.2019 04:00:00 9,1 7,2 - - 16 9 - - S 1006,8 15 0 0,0
17.02.2019 03:00:00 8,8 7,2 - - 24 13 - - S 1007,3 10 0 0,0
17.02.2019 02:00:00 8,1 6,3 - - 26 14 - - S 1007,9 10 0 0,0
17.02.2019 01:00:00 7,7 5,4 - - 16 9 - - SSE 1008,5 10 0 0,0
17.02.2019 00:00:00 7,3 5,1 - - 24 13 - - S 1009,1 10 - 0,0
16.02.2019 23:00:00 7,1 4,4 - - 11 6 - - S 1010,2 10 0 0,0
16.02.2019 22:00:00 8,0 4,9 - - 22 12 - - S 1010,4 10 0 0,0
16.02.2019 21:00:00 8,2 5,3 - - 24 13 - - SSW 1010,5 10 0 0,0
16.02.2019 20:00:00 8,4 4,8 - - 21 11 - - SSW 1010,8 10 0 0,0
16.02.2019 19:00:00 8,1 4,3 - - 21 11 - - S 1011,5 10 0 0,0
16.02.2019 18:00:00 8,3 3,4 - - 9 5 - - S 1012,0 10 0 0,0
16.02.2019 17:00:00 8,7 3,8 - - 35 19 48 26 SSW 1011,3 50 0 0,0
16.02.2019 16:00:00 9,6 5,1 - - 28 15 - - SSW 1011,8 10 0 0,0
16.02.2019 15:00:00 10,1 5,6 - - 21 11 - - SSW 1012,0 10 54 0,0
16.02.2019 14:00:00 11,1 5,3 - - 26 14 - - SSW 1011,7 10 60 0,0
16.02.2019 13:00:00 10,8 5,5 - - 29 16 - - SW 1011,8 40 60 0,0
16.02.2019 12:00:00 10,5 5,9 - - 28 15 - - SW 1011,7 10 54 0,0
16.02.2019 11:00:00 9,7 6,0 - - 26 14 - - WSW 1011,2 40 36 0,0
16.02.2019 10:00:00 9,3 5,9 - - 22 12 - - SW 1011,3 10 0 0,0
16.02.2019 09:00:00 8,7 6,0 4,4 5,0 16 9 - - SW 1011,4 10 0 0,0
16.02.2019 08:00:00 8,1 5,9 - - 15 8 - - SW 1010,8 10 0 0,0
16.02.2019 07:00:00 7,1 4,9 - - 8 4 - - S 1010,7 18 0 0,0
16.02.2019 06:00:00 8,4 6,0 - - 9 5 - - SSW 1010,0 10 0 0,0
16.02.2019 05:00:00 8,6 5,8 - - 13 7 - - SW 1009,3 40 0 0,0
16.02.2019 04:00:00 8,5 6,0 - - 15 8 - - SSW 1009,1 10 0 0,0
16.02.2019 03:00:00 9,4 6,9 - - 13 7 - - SW 1009,1 10 0 0,0
16.02.2019 02:00:00 9,3 7,0 - - 21 11 - - SSW 1008,8 10 0 0,0
16.02.2019 01:00:00 9,7 7,1 - - 15 8 - - SSW 1009,1 10 0 0,0
16.02.2019 00:00:00 9,0 5,7 - - 16 9 - - S 1009,4 10 - 0,0
15.02.2019 23:00:00 8,7 4,8 - - 26 14 - - SSW 1009,7 10 0 0,0
15.02.2019 22:00:00 8,4 4,4 - - 34 18 - - S 1010,5 10 0 0,0
15.02.2019 21:00:00 8,9 4,3 - - 15 8 - - SSW 1011,0 10 0 0,0
15.02.2019 20:00:00 10,0 4,5 - - 28 15 - - SW 1011,6 21 0 0,0
15.02.2019 19:00:00 10,0 4,3 - - 31 17 50 27 SW 1012,2 10 0 0,0
15.02.2019 18:00:00 9,1 3,7 - - 26 14 - - SSW 1012,7 10 0 0,0
15.02.2019 17:00:00 10,4 3,8 - - 31 17 54 29 S 1012,3 10 0 0,0
15.02.2019 16:00:00 11,0 3,2 - - 37 20 70 38 S 1012,2 10 60 0,0
15.02.2019 15:00:00 11,1 2,9 - - 48 26 76 41 S 1012,0 10 60 0,0
15.02.2019 14:00:00 11,1 2,1 - - 54 29 74 40 SSW 1012,8 10 60 0,0
15.02.2019 13:00:00 11,7 1,0 - - 37 20 63 34 SSW 1014,4 10 60 0,0
15.02.2019 12:00:00 11,4 -1,8 - - 28 15 - - SSW 1015,4 40 42 0,0
15.02.2019 11:00:00 10,4 -1,2 - - 26 14 46 25 S 1016,5 10 30 0,0
15.02.2019 10:00:00 9,3 -0,4 - - 13 7 - - ESE 1017,2 10 48 0,0
15.02.2019 09:00:00 6,7 -2,0 4,2 5,0 15 8 - - ESE 1017,9 10 60 0,0
15.02.2019 08:00:00 4,6 -2,2 - - 9 5 - - SE 1018,3 10 0 0,0
15.02.2019 07:00:00 4,8 -1,9 - - 5 3 - - - 1018,6 10 0 0,0
15.02.2019 06:00:00 4,8 -0,9 - - 15 8 - - SE 1018,8 10 0 0,0
15.02.2019 05:00:00 6,8 -4,1 - - 18 10 - - S 1019,0 10 0 0,0
15.02.2019 04:00:00 8,4 -3,3 - - 24 13 - - S 1019,1 10 0 0,0
15.02.2019 03:00:00 7,1 1,0 - - 22 12 - - S 1019,8 35 0 0,0
15.02.2019 02:00:00 8,5 0,4 - - 11 6 - - S 1020,4 50 0 0,0
15.02.2019 01:00:00 8,4 2,1 - - 13 7 - - ESE 1020,8 10 0 0,0
15.02.2019 00:00:00 7,5 2,8 - - 18 10 - - SSE 1021,2 10 - 0,0
14.02.2019 23:00:00 6,2 2,7 - - 5 3 - - - 1021,2 10 0 0,0
14.02.2019 22:00:00 7,7 4,3 - - 5 3 - - SSE 1021,2 23 0 0,0
14.02.2019 21:00:00 7,7 4,9 - - 16 9 - - S 1021,8 10 0 0,0
14.02.2019 20:00:00 7,8 4,9 - - 15 8 - - S 1022,0 19 0 0,0
14.02.2019 19:00:00 8,0 5,4 - - 13 7 - - SSE 1022,3 10 0 0,0
14.02.2019 18:00:00 8,0 5,7 - - 11 6 - - SSE 1022,4 10 0 0,0
14.02.2019 17:00:00 8,9 6,5 - - 16 9 - - S 1022,4 17 0 0,0
14.02.2019 16:00:00 9,1 6,3 - - 16 9 - - S 1022,5 15 0 0,0
14.02.2019 15:00:00 9,8 6,8 - - 18 10 - - S 1023,4 10 0 0,0
14.02.2019 14:00:00 9,8 6,8 - - 16 9 - - SSW 1023,6 35 0 0,0
14.02.2019 13:00:00 9,5 6,8 - - 15 8 - - SSW 1023,8 10 0 0,0
14.02.2019 12:00:00 8,8 6,9 - - 15 8 - - SSE 1024,4 10 0 0,0
14.02.2019 11:00:00 8,9 6,8 - - 21 11 - - S 1024,4 10 0 0,0
14.02.2019 10:00:00 8,7 6,5 - - 16 9 - - S 1024,3 10 0 0,0
14.02.2019 09:00:00 7,6 6,1 4,0 5,0 16 9 - - SSE 1023,8 10 0 0,0
14.02.2019 08:00:00 8,1 5,8 - - 22 12 - - S 1023,0 10 0 0,0
14.02.2019 07:00:00 8,8 5,5 - - 13 7 - - S 1022,2 10 0 0,0
14.02.2019 06:00:00 8,7 5,9 - - 8 4 - - SSW 1021,3 10 0 0,0
14.02.2019 05:00:00 6,2 4,4 - - 5 3 - - - 1021,5 10 0 0,0
14.02.2019 04:00:00 7,8 4,9 - - 4 2 - - - 1021,1 10 0 0,0
14.02.2019 03:00:00 8,4 4,8 - - 8 4 - - SW 1020,4 10 0 0,0
14.02.2019 02:00:00 8,2 4,6 - - 11 6 - - S 1019,8 10 0 0,0
14.02.2019 01:00:00 8,5 4,4 - - 26 14 - - SSW 1019,5 10 0 0,0
14.02.2019 00:00:00 8,7 5,2 - - 5 3 - - - 1019,7 10 - 0,0
13.02.2019 23:00:00 8,5 4,6 - - 8 4 - - SSE 1019,8 10 0 0,0
13.02.2019 22:00:00 9,4 5,1 - - 16 9 - - WSW 1019,3 28 0 0,0
13.02.2019 21:00:00 9,4 5,3 - - 13 7 - - SW 1019,0 23 0 0,0
13.02.2019 20:00:00 9,5 5,4 - - 16 9 - - SSW 1018,6 10 0 0,0
13.02.2019 19:00:00 9,2 5,5 - - 15 8 - - S 1019,0 28 0 0,0
13.02.2019 18:00:00 9,2 5,7 - - 24 13 50 27 SSW 1019,4 25 0 0,0
13.02.2019 17:00:00 9,9 6,2 - - 31 17 57 31 SSW 1019,2 10 18 0,0
13.02.2019 16:00:00 10,3 6,6 - - 41 22 63 34 SW 1019,4 30 54 0,0
13.02.2019 15:00:00 11,0 7,0 - - 37 20 48 26 SSW 1019,6 10 6 0,0
13.02.2019 14:00:00 11,2 6,9 - - 34 18 52 28 SW 1019,6 30 0 0,0
13.02.2019 13:00:00 10,5 6,9 - - 29 16 - - SSW 1019,4 10 0 0,0

tt = temperature
td = dewpoint
tt -20cm = temperature -20cm
tt -100cm = temperature -100cm
ff = wind speed
fx = gusts
dd = wind direction
ppp = reduced air pressure
vv = visibility
sd = sunshine duration
rr = precipitation

Next stations